******** Week 352 almanac for PRN-1 ******** ID: 1 Health: 0 Eccentricity: 0.001336574554 Time of Applicability(s): 405504 Orbital Inclination(rad): 0.9583868546 Rate of Right Ascen(r/s): -7.886042771e-09 SQRT(A) (m 1/2): 5153.587402 Right Ascen at Week(rad): -2.145193861 Argument of Perigee(rad): -0.03111928702 Mean Anom(rad): -1.317287277 Af0(s): 0.0002735837769 Af1(s/s): -3.637979e-12 week: 352 ******** Week 352 almanac for PRN-2 ******** ID: 2 Health: 0 Eccentricity: 0.01696825027 Time of Applicability(s): 405504 Orbital Inclination(rad): 0.9639295587 Rate of Right Ascen(r/s): -7.806039438e-09 SQRT(A) (m 1/2): 5153.568848 Right Ascen at Week(rad): -2.307992815 Argument of Perigee(rad): -0.8552317403 Mean Anom(rad): 0.06259735178 Af0(s): 9.797766113e-06 Af1(s/s): 7.275958e-12 week: 352 ******** Week 352 almanac for PRN-3 ******** ID: 3 Health: 0 Eccentricity: 0.006326675415 Time of Applicability(s): 405504 Orbital Inclination(rad): 0.9924999508 Rate of Right Ascen(r/s): -7.760323248e-09 SQRT(A) (m 1/2): 5153.609375 Right Ascen at Week(rad): -1.159424325 Argument of Perigee(rad): 1.21198414 Mean Anom(rad): 2.714054308 Af0(s): 0.0004770758423 Af1(s/s): -1.091394e-11 week: 352 ******** Week 352 almanac for PRN-4 ******** ID: 4 Health: 0 Eccentricity: 0.003711700439 Time of Applicability(s): 405504 Orbital Inclination(rad): 0.9704369928 Rate of Right Ascen(r/s): -7.954617056e-09 SQRT(A) (m 1/2): 5153.700684 Right Ascen at Week(rad): -0.08814434872 Argument of Perigee(rad): -2.919512983 Mean Anom(rad): -0.4979505371 Af0(s): 2.939329834e-05 Af1(s/s): 3.637979e-12 week: 352 ******** Week 352 almanac for PRN-5 ******** ID: 5 Health: 0 Eccentricity: 0.005369663238 Time of Applicability(s): 405504 Orbital Inclination(rad): 0.9790776189 Rate of Right Ascen(r/s): -7.874613723e-09 SQRT(A) (m 1/2): 5153.627441 Right Ascen at Week(rad): -1.218500187 Argument of Perigee(rad): 1.427105471 Mean Anom(rad): 0.09477986425 Af0(s): -0.0001793744873 Af1(s/s): 0 week: 352 ******** Week 352 almanac for PRN-6 ******** ID: 6 Health: 0 Eccentricity: 0.003846645355 Time of Applicability(s): 405504 Orbital Inclination(rad): 0.9873467341 Rate of Right Ascen(r/s): -7.600316584e-09 SQRT(A) (m 1/2): 5153.562012 Right Ascen at Week(rad): -2.196171008 Argument of Perigee(rad): -0.633661398 Mean Anom(rad): -2.179736517 Af0(s): -0.000474061145 Af1(s/s): -3.637979e-12 week: 352 ******** Week 352 almanac for PRN-7 ******** ID: 7 Health: 0 Eccentricity: 0.02014446259 Time of Applicability(s): 405504 Orbital Inclination(rad): 0.9507529034 Rate of Right Ascen(r/s): -7.817468486e-09 SQRT(A) (m 1/2): 5153.59375 Right Ascen at Week(rad): 0.9205656149 Argument of Perigee(rad): -2.006537128 Mean Anom(rad): -3.096416621 Af0(s): -0.00010476073 Af1(s/s): -3.637979e-12 week: 352 ******** Week 352 almanac for PRN-8 ******** ID: 8 Health: 0 Eccentricity: 0.01137304306 Time of Applicability(s): 405504 Orbital Inclination(rad): 0.9445630512 Rate of Right Ascen(r/s): -8.228914196e-09 SQRT(A) (m 1/2): 5153.605957 Right Ascen at Week(rad): 2.969244146 Argument of Perigee(rad): 0.4975617988 Mean Anom(rad): -0.2411008838 Af0(s): 0.000400201062 Af1(s/s): -3.637979e-12 week: 352 ******** Week 352 almanac for PRN-9 ******** ID: 9 Health: 0 Eccentricity: 0.003395557404 Time of Applicability(s): 405504 Orbital Inclination(rad): 0.9645527384 Rate of Right Ascen(r/s): -8.034620388e-09 SQRT(A) (m 1/2): 5153.529297 Right Ascen at Week(rad): -0.1519858128 Argument of Perigee(rad): 2.065294284 Mean Anom(rad): 0.3312136415 Af0(s): 0.0006082151733 Af1(s/s): 0 week: 352 ******** Week 352 almanac for PRN-10 ******** ID: 10 Health: 0 Eccentricity: 0.01097202301 Time of Applicability(s): 405504 Orbital Inclination(rad): 0.9920505424 Rate of Right Ascen(r/s): -7.726036106e-09 SQRT(A) (m 1/2): 5153.604492 Right Ascen at Week(rad): -1.161935769 Argument of Perigee(rad): -2.269352678 Mean Anom(rad): 1.750397165 Af0(s): -0.0004589876587 Af1(s/s): -3.637979e-12 week: 352 ******** Week 352 almanac for PRN-11 ******** ID: 11 Health: 0 Eccentricity: 0.002245903015 Time of Applicability(s): 405504 Orbital Inclination(rad): 0.9641932116 Rate of Right Ascen(r/s): -7.840326581e-09 SQRT(A) (m 1/2): 5153.728027 Right Ascen at Week(rad): -2.17620529 Argument of Perigee(rad): -2.250120618 Mean Anom(rad): -1.215574164 Af0(s): -0.0003806055298 Af1(s/s): 1.455192e-11 week: 352 ******** Week 352 almanac for PRN-12 ******** ID: 12 Health: 0 Eccentricity: 0.009061336517 Time of Applicability(s): 405504 Orbital Inclination(rad): 0.9589501132 Rate of Right Ascen(r/s): -7.966046103e-09 SQRT(A) (m 1/2): 5153.514648 Right Ascen at Week(rad): 2.038473214 Argument of Perigee(rad): 1.532260678 Mean Anom(rad): 2.564909505 Af0(s): -0.0004793368652 Af1(s/s): 0 week: 352 ******** Week 352 almanac for PRN-13 ******** ID: 13 Health: 0 Eccentricity: 0.009902477264 Time of Applicability(s): 405504 Orbital Inclination(rad): 0.9761414838 Rate of Right Ascen(r/s): -7.863184676e-09 SQRT(A) (m 1/2): 5153.623047 Right Ascen at Week(rad): 0.02231762284 Argument of Perigee(rad): 1.002962404 Mean Anom(rad): -0.5191495075 Af0(s): 0.0005456602051 Af1(s/s): 0 week: 352 ******** Week 352 almanac for PRN-14 ******** ID: 14 Health: 0 Eccentricity: 0.006474018097 Time of Applicability(s): 405504 Orbital Inclination(rad): 0.94226208 Rate of Right Ascen(r/s): -8.114623721e-09 SQRT(A) (m 1/2): 5153.587402 Right Ascen at Week(rad): 1.984674531 Argument of Perigee(rad): -2.763897823 Mean Anom(rad): 2.37199307 Af0(s): 0.0005750535034 Af1(s/s): 3.637979e-12 week: 352 ******** Week 352 almanac for PRN-15 ******** ID: 15 Health: 0 Eccentricity: 0.01660966873 Time of Applicability(s): 405504 Orbital Inclination(rad): 0.9423220012 Rate of Right Ascen(r/s): -8.274630386e-09 SQRT(A) (m 1/2): 5153.614258 Right Ascen at Week(rad): -0.2946786083 Argument of Perigee(rad): 1.492403393 Mean Anom(rad): -1.251992725 Af0(s): 0.0002961940063 Af1(s/s): 3.637979e-12 week: 352 ******** Week 352 almanac for PRN-16 ******** ID: 16 Health: 0 Eccentricity: 0.01502990723 Time of Applicability(s): 405504 Orbital Inclination(rad): 0.9581172096 Rate of Right Ascen(r/s): -7.977475151e-09 SQRT(A) (m 1/2): 5153.566895 Right Ascen at Week(rad): 2.055540998 Argument of Perigee(rad): 0.919636463 Mean Anom(rad): 0.7527849682 Af0(s): 0.0001454591431 Af1(s/s): 7.275958e-12 week: 352 ******** Week 352 almanac for PRN-17 ******** ID: 17 Health: 0 Eccentricity: 0.0128493309 Time of Applicability(s): 405504 Orbital Inclination(rad): 0.960322307 Rate of Right Ascen(r/s): -8.011762293e-09 SQRT(A) (m 1/2): 5153.507324 Right Ascen at Week(rad): 3.073067231 Argument of Perigee(rad): -1.138638062 Mean Anom(rad): -0.3584964785 Af0(s): -2.110288086e-05 Af1(s/s): -1.091394e-11 week: 352 ******** Week 352 almanac for PRN-18 ******** ID: 18 Health: 0 Eccentricity: 0.005689620972 Time of Applicability(s): 405504 Orbital Inclination(rad): 0.972312524 Rate of Right Ascen(r/s): -7.748894201e-09 SQRT(A) (m 1/2): 5153.604492 Right Ascen at Week(rad): -2.200457241 Argument of Perigee(rad): -2.85611119 Mean Anom(rad): -2.339345045 Af0(s): -0.0003602563232 Af1(s/s): 1.091394e-11 week: 352 ******** Week 352 almanac for PRN-19 ******** ID: 19 Health: 0 Eccentricity: 0.01095485687 Time of Applicability(s): 405504 Orbital Inclination(rad): 0.9595193639 Rate of Right Ascen(r/s): -8.011762293e-09 SQRT(A) (m 1/2): 5153.651367 Right Ascen at Week(rad): 3.116973686 Argument of Perigee(rad): 2.912915293 Mean Anom(rad): 1.512460491 Af0(s): 0.0005411381592 Af1(s/s): 3.637979e-12 week: 352 ******** Week 352 almanac for PRN-20 ******** ID: 20 Health: 0 Eccentricity: 0.003688335419 Time of Applicability(s): 405504 Orbital Inclination(rad): 0.9607357627 Rate of Right Ascen(r/s): -8.000333246e-09 SQRT(A) (m 1/2): 5153.611328 Right Ascen at Week(rad): -1.357717558 Argument of Perigee(rad): -2.038742485 Mean Anom(rad): -2.151945848 Af0(s): 0.0002856425659 Af1(s/s): 0 week: 352 ******** Week 352 almanac for PRN-21 ******** ID: 21 Health: 0 Eccentricity: 0.0005283355713 Time of Applicability(s): 405504 Orbital Inclination(rad): 0.9619341852 Rate of Right Ascen(r/s): -8.057478483e-09 SQRT(A) (m 1/2): 5153.684082 Right Ascen at Week(rad): -1.151581024 Argument of Perigee(rad): -0.509053547 Mean Anom(rad): 2.448908575 Af0(s): 0.0002969476807 Af1(s/s): 7.275958e-12 week: 352 ******** Week 352 almanac for PRN-22 ******** ID: 22 Health: 0 Eccentricity: 0.01226234436 Time of Applicability(s): 405504 Orbital Inclination(rad): 0.957553951 Rate of Right Ascen(r/s): -7.966046103e-09 SQRT(A) (m 1/2): 5153.575195 Right Ascen at Week(rad): 2.05887823 Argument of Perigee(rad): -0.9985758035 Mean Anom(rad): 0.2959549282 Af0(s): -4.823515625e-05 Af1(s/s): 3.637979e-12 week: 352 ******** Week 352 almanac for PRN-23 ******** ID: 23 Health: 0 Eccentricity: 0.005993843079 Time of Applicability(s): 405504 Orbital Inclination(rad): 0.9870471285 Rate of Right Ascen(r/s): -7.783181343e-09 SQRT(A) (m 1/2): 5153.651367 Right Ascen at Week(rad): -1.193781974 Argument of Perigee(rad): -2.750250786 Mean Anom(rad): 2.851908847 Af0(s): 0.0004718001221 Af1(s/s): 3.637979e-12 week: 352 ******** Week 352 almanac for PRN-24 ******** ID: 24 Health: 0 Eccentricity: 0.01782226562 Time of Applicability(s): 405504 Orbital Inclination(rad): 0.9348138842 Rate of Right Ascen(r/s): -8.011762293e-09 SQRT(A) (m 1/2): 5153.601562 Right Ascen at Week(rad): 0.813014312 Argument of Perigee(rad): 1.127987456 Mean Anom(rad): -2.115475605 Af0(s): -0.0001349077026 Af1(s/s): 1.455192e-11 week: 352 ******** Week 352 almanac for PRN-25 ******** ID: 25 Health: 0 Eccentricity: 0.01292037964 Time of Applicability(s): 405504 Orbital Inclination(rad): 0.9472235491 Rate of Right Ascen(r/s): -8.068907531e-09 SQRT(A) (m 1/2): 5153.69043 Right Ascen at Week(rad): 1.945220964 Argument of Perigee(rad): 1.148182748 Mean Anom(rad): 2.425223252 Af0(s): 0.0003564879517 Af1(s/s): -3.637979e-12 week: 352 ******** Week 352 almanac for PRN-26 ******** ID: 26 Health: 0 Eccentricity: 0.01095294952 Time of Applicability(s): 405504 Orbital Inclination(rad): 0.9279708918 Rate of Right Ascen(r/s): -8.217485148e-09 SQRT(A) (m 1/2): 5153.629395 Right Ascen at Week(rad): 1.871665537 Argument of Perigee(rad): 0.6983413834 Mean Anom(rad): 1.592143603 Af0(s): -0.0002434368042 Af1(s/s): -7.275958e-12 week: 352 ******** Week 352 almanac for PRN-27 ******** ID: 27 Health: 0 Eccentricity: 0.01412391663 Time of Applicability(s): 405504 Orbital Inclination(rad): 0.9536770543 Rate of Right Ascen(r/s): -8.126052768e-09 SQRT(A) (m 1/2): 5153.607422 Right Ascen at Week(rad): 3.000792618 Argument of Perigee(rad): 0.864353608 Mean Anom(rad): -0.1528782631 Af0(s): -1.130511475e-05 Af1(s/s): -7.275958e-12 week: 352 ******** Week 352 almanac for PRN-28 ******** ID: 28 Health: 0 Eccentricity: 0.000412940979 Time of Applicability(s): 405504 Orbital Inclination(rad): 0.9617304534 Rate of Right Ascen(r/s): -7.748894201e-09 SQRT(A) (m 1/2): 5153.712402 Right Ascen at Week(rad): 0.8942220415 Argument of Perigee(rad): 0.4073670241 Mean Anom(rad): -3.127931388 Af0(s): -0.0004853662598 Af1(s/s): 3.637979e-12 week: 352 ******** Week 352 almanac for PRN-29 ******** ID: 29 Health: 0 Eccentricity: 0.003241062164 Time of Applicability(s): 405504 Orbital Inclination(rad): 0.9629648286 Rate of Right Ascen(r/s): -8.023191341e-09 SQRT(A) (m 1/2): 5153.734375 Right Ascen at Week(rad): 3.089629056 Argument of Perigee(rad): 2.75550512 Mean Anom(rad): -0.2754293215 Af0(s): -0.0003135285156 Af1(s/s): 7.275958e-12 week: 352 ******** Week 352 almanac for PRN-30 ******** ID: 30 Health: 0 Eccentricity: 0.007845878601 Time of Applicability(s): 405504 Orbital Inclination(rad): 0.9360123067 Rate of Right Ascen(r/s): -7.988904198e-09 SQRT(A) (m 1/2): 5153.733887 Right Ascen at Week(rad): 0.9123376955 Argument of Perigee(rad): -2.35083567 Mean Anom(rad): 3.089678116 Af0(s): 6.406231689e-05 Af1(s/s): 1.091394e-11 week: 352 ******** Week 352 almanac for PRN-31 ******** ID: 31 Health: 0 Eccentricity: 0.01088619232 Time of Applicability(s): 405504 Orbital Inclination(rad): 0.95451595 Rate of Right Ascen(r/s): -7.806039438e-09 SQRT(A) (m 1/2): 5153.711426 Right Ascen at Week(rad): 0.9445599057 Argument of Perigee(rad): 0.9285531008 Mean Anom(rad): 2.128946997 Af0(s): -0.0001371687256 Af1(s/s): 3.637979e-12 week: 352 ******** Week 352 almanac for PRN-32 ******** ID: 32 Health: 0 Eccentricity: 0.009137630463 Time of Applicability(s): 405504 Orbital Inclination(rad): 0.9676386763 Rate of Right Ascen(r/s): -7.988904198e-09 SQRT(A) (m 1/2): 5153.657227 Right Ascen at Week(rad): -0.1351756904 Argument of Perigee(rad): -2.030512319 Mean Anom(rad): 0.4625502603 Af0(s): -0.000135661377 Af1(s/s): 1.818989e-11 week: 352